GW3488 Weather Reports


Display with metric or nautical units.
time (UTC)temp
F
wind
direction
speed
MPH
gust
MPH
rain 1hr
in
rain 24hr
in
rain mn
in
humidity
%
barometer
mb
20260504081530 50 180 3.0 19.0 0.00 0.00 0.00 48 1016.4
20260504044526 54 180 3.0 5.0 0.00 0.01 0.00 40 1010.4
20260504043028 54 180 1.0 3.0 0.00 0.01 0.00 38 1009.9
20260504041531 56 180 1.0 4.0 0.00 0.01 0.00 36 1009.7
20260504040046 57 180 1.0 5.0 0.00 0.01 0.00 33 1009.5
20260504034530 58 180 1.0 5.0 0.00 0.01 0.00 31 1009.2
20260504033027 59 180 0.0 5.0 0.00 0.01 0.00 28 1008.7
20260504031530 60 0 0.0 1.0 0.00 0.01 0.00 28 1008.2
20260504030029 61 0 0.0 1.0 0.00 0.01 0.00 27 1008.1
20260504024528 62 0 0.0 2.0 0.00 0.01 0.00 27 1008.0
20260504023028 63 0 0.0 2.0 0.00 0.01 0.00 26 1008.0
20260504021528 64 10 1.0 3.0 0.00 0.01 0.00 26 1007.8
20260504020027 67 180 2.0 5.0 0.00 0.01 0.00 24 1007.8
20260504014532 69 180 4.0 10.0 0.00 0.01 0.00 22 1007.7
20260504013031 71 180 10.0 15.0 0.00 0.01 0.00 21 1007.7
20260504011528 73 180 5.0 12.0 0.00 0.01 0.00 20 1007.7
20260504010030 74 317 4.0 10.0 0.00 0.01 0.00 16 1007.8
20260504004539 75 180 10.0 14.0 0.00 0.01 0.00 16 1008.0
20260504003029 75 180 9.0 13.0 0.00 0.01 0.00 15 1008.1
20260504001529 75 180 9.0 14.0 0.00 0.01 0.00 16 1008.2
20260504000029 75 326 2.0 12.0 0.00 0.01 0.00 16 1008.4
20260503234533 76 300 9.0 14.0 0.00 0.01 0.00 16 1008.5
20260503233028 75 180 9.0 19.0 0.00 0.01 0.00 15 1008.6
20260503231528 75 180 9.0 16.0 0.00 0.01 0.00 14 1008.7
20260503230030 75 180 10.0 17.0 0.00 0.01 0.00 16 1008.9
20260503224528 74 180 8.0 18.0 0.00 0.01 0.00 15 1009.0
20260503223030 75 180 9.0 14.0 0.00 0.01 0.00 15 1009.1
20260503221529 73 180 4.0 15.0 0.00 0.01 0.00 16 1009.3
20260503220028 74 180 13.0 18.0 0.00 0.01 0.00 16 1009.6
20260503214528 74 180 9.0 17.0 0.00 0.01 0.00 15 1009.8
20260503213029 73 180 11.0 15.0 0.00 0.01 0.00 15 1010.0
20260503211527 73 180 7.0 16.0 0.00 0.01 0.00 16 1010.2
20260503210029 73 180 9.0 18.0 0.00 0.01 0.00 16 1010.4
20260503204530 72 180 11.0 20.0 0.00 0.01 0.00 18 1010.7
20260503203030 73 180 11.0 20.0 0.00 0.01 0.00 17 1010.8
20260503201531 73 180 12.0 27.0 0.00 0.01 0.00 19 1011.0
20260503200028 72 180 12.0 21.0 0.00 0.01 0.00 19 1011.2
20260503194532 72 180 14.0 22.0 0.00 0.01 0.00 18 1011.6
20260503193039 72 180 11.0 20.0 0.00 0.01 0.00 19 1011.6
20260503191531 71 180 12.0 20.0 0.00 0.01 0.00 20 1012.0
20260503190032 71 180 12.0 19.0 0.00 0.01 0.00 20 1012.1
20260503184530 70 180 10.0 19.0 0.00 0.01 0.00 24 1012.4
20260503183029 69 180 8.0 19.0 0.00 0.01 0.00 24 1012.8
20260503181532 69 180 9.0 20.0 0.00 0.01 0.00 23 1012.9
20260503180030 69 180 10.0 15.0 0.00 0.01 0.00 25 1013.1
20260503174532 67 180 11.0 16.0 0.00 0.01 0.00 25 1013.1
20260503173028 66 180 8.0 15.0 0.00 0.01 0.00 26 1013.2
20260503171529 66 180 8.0 17.0 0.00 0.01 0.00 26 1013.4